EDT,Max TemperatureF,Mean TemperatureF,Min TemperatureF,Max Dew PointF,MeanDew PointF,Min DewpointF,Max Humidity, Mean Humidity, Min Humidity, Max Sea Level PressureIn, Mean Sea Level PressureIn, Min Sea Level PressureIn, Max VisibilityMiles, Mean VisibilityMiles, Min VisibilityMiles, Max Wind SpeedMPH, Mean Wind SpeedMPH, Max Gust SpeedMPH,PrecipitationIn, CloudCover, Events, WindDirDegrees
2013-6-1,78,71,63,66,62,57,87,72,56,29.79,29.73,29.67,10,9,2,28,13,38,0.53,6,Rain-Thunderstorm,202
2013-6-2,63,55,47,59,48,40,89,75,61,30.04,29.84,29.66,10,8,0,18,10,26,0.12,6,Fog-Rain,290
2013-6-3,64,54,43,47,42,37,89,66,43,30.13,30.08,30.01,10,10,10,12,3,16,0.00,0,,260
2013-6-4,74,61,48,49,46,43,86,62,38,30.19,30.16,30.13,10,10,10,12,5,17,0.00,0,,35
2013-6-5,74,67,60,49,44,34,64,45,26,30.15,30.08,30.01,10,10,10,18,9,24,0.01,6,Rain,83
2013-6-6,67,62,57,52,51,49,80,66,52,29.99,29.94,29.91,10,10,10,13,7,18,0.11,8,Rain,69
2013-6-7,74,63,51,51,47,44,83,61,38,29.96,29.93,29.88,10,10,10,15,6,21,0.00,2,,26
2013-6-8,74,62,50,53,48,41,83,58,33,30.04,29.98,29.91,10,10,9,10,3,14,0.00,0,,162
2013-6-9,83,71,58,64,59,51,80,66,51,30.04,29.97,29.88,10,8,1,31,8,38,0.22,4,Rain-Thunderstorm,110
2013-6-10,76,69,61,66,63,59,93,82,70,29.87,29.79,29.76,10,9,2,15,6,20,0.08,7,Rain,45
2013-6-11,79,68,56,65,59,54,93,77,60,29.94,29.90,29.85,10,5,0,12,5,14,0.00,2,Fog,251
2013-6-12,82,74,65,68,64,62,87,73,58,29.93,29.77,29.64,10,6,1,20,5,30,2.41,4,Rain-Thunderstorm,53
2013-6-13,74,68,62,65,58,53,93,75,57,30.00,29.81,29.63,10,9,6,20,8,26,0.01,3,Rain,338
2013-6-14,78,68,57,58,52,48,80,62,44,30.12,30.07,30.01,10,10,10,16,5,20,0.00,0,,338
2013-6-15,76,67,57,62,58,52,84,72,60,30.07,30.00,29.87,10,10,10,17,5,22,0.05,3,,178
2013-6-16,80,72,64,65,62,59,87,70,52,29.91,29.87,29.81,10,8,1,33,8,52,0.27,5,Rain-Thunderstorm,246
2013-6-17,85,73,60,62,57,53,84,59,34,29.93,29.90,29.87,10,9,2,16,6,21,0.00,0,,243
2013-6-18,75,66,56,58,52,40,84,60,35,30.09,30.01,29.92,10,10,9,15,8,20,0.00,2,,72
2013-6-19,77,64,50,52,44,42,75,53,31,30.19,30.14,30.09,10,10,10,14,4,16,0.00,0,,76
2013-6-20,85,68,50,59,52,47,89,60,31,30.20,30.16,30.12,10,10,9,12,2,14,0.00,0,,214
2013-6-21,86,76,66,65,62,57,81,63,44,30.16,30.09,29.96,10,10,9,23,9,31,0.00,1,,182
2013-6-22,88,79,69,69,66,64,87,69,50,30.12,30.03,29.98,10,10,5,15,6,26,T,1,,223
2013-6-23,88,79,70,68,66,62,84,64,43,30.03,30.00,29.95,10,10,7,20,12,25,0.00,0,,209
2013-6-24,85,78,71,70,66,63,79,65,51,30.06,30.00,29.86,10,9,5,24,10,32,T,2,Rain,225
2013-6-25,83,76,68,70,66,63,87,76,65,29.98,29.91,29.83,10,9,2,21,6,25,0.55,4,Rain-Thunderstorm,214
2013-6-26,84,76,68,70,67,64,90,77,63,29.87,29.80,29.74,10,10,6,15,5,21,T,4,Rain-Thunderstorm,174
2013-6-27,82,74,66,70,67,64,93,78,62,29.78,29.74,29.67,10,8,3,16,5,20,0.00,2,,271
2013-6-28,78,72,65,66,63,61,90,73,56,29.67,29.63,29.59,10,7,0,16,6,22,0.00,2,Fog,289
2013-6-29,79,72,64,65,62,59,93,77,60,29.76,29.64,29.57,10,9,2,12,5,22,0.27,6,Rain,32
2013-6-30,83,75,66,61,57,51,81,58,34,29.99,29.87,29.77,10,10,10,15,5,22,0.00,5,,43